Temperature
-0 -1 -1 -1 -1 -0 -1 -1 -2 -4 -5 -3 -2 -1 -2 -3 -4 -5 -5 -5 -6 -6 -6 -6 -6 -6 -6 -6 -6 -6 -6 -6 -6 -5 -5 -5 -5 -4
-1 -2 -2 -2 -2 -2 -2 -2 -2 -3 -5 -4 -3 -2 -3 -3 -4 -5 -5 -6 -6 -6 -6 -6 -6 -6 -6 -6 -6 -6 -6 -6 -6 -6 -5 -5 -5 -5
-2 -2 -3 -3 -3 -3 -3 -3 -3 -4 -5 -4 -4 -3 -3 -3 -4 -5 -5 -6 -6 -6 -7 -7 -6 -6 -6 -6 -6 -6 -6 -6 -6 -6 -6 -5 -5 -5
-2 -3 -3 -4 -4 -4 -4 -4 -4 -4 -4 -5 -4 -4 -4 -4 -5 -5 -6 -6 -6 -7 -7 -7 -7 -7 -7 -6 -6 -7 -7 -6 -6 -6 -6 -6 -6 -5
-2 -3 -3 -4 -5 -5 -5 -5 -5 -4 -4 -6 -6 -5 -5 -5 -6 -6 -6 -7 -7 -7 -7 -7 -7 -7 -7 -7 -7 -7 -7 -7 -7 -7 -7 -6 -6 -6
-2 -3 -4 -5 -5 -5 -5 -5 -5 -5 -5 -6 -7 -7 -6 -5 -7 -7 -7 -7 -7 -7 -7 -7 -7 -8 -7 -7 -8 -8 -8 -8 -7 -7 -7 -7 -7 -6
-3 -4 -4 -5 -6 -6 -6 -6 -5 -5 -6 -6 -7 -7 -7 -6 -7 -7 -7 -7 -7 -7 -8 -8 -8 -8 -8 -9 -9 -9 -9 -8 -8 -8 -8 -7 -7 -7
-3 -4 -5 -6 -6 -6 -6 -6 -6 -6 -6 -6 -7 -7 -6 -6 -7 -7 -8 -8 -8 -7 -8 -8 -9 -9 -9 -9 -9 -9 -9 -9 -9 -8 -8 -8 -8 -7
-4 -5 -6 -6 -7 -7 -6 -6 -6 -6 -6 -6 -6 -6 -6 -6 -7 -7 -7 -8 -8 -8 -9 -9 -9 -9 -9 -10 -10 -9 -9 -9 -9 -9 -8 -8 -8 -7
-5 -5 -6 -7 -7 -7 -7 -6 -6 -6 -6 -6 -6 -6 -6 -7 -7 -7 -7 -8 -8 -8 -9 -9 -9 -10 -10 -10 -10 -10 -10 -9 -9 -9 -8 -8 -8 -8
-5 -6 -6 -7 -7 -7 -7 -7 -6 -6 -6 -6 -7 -7 -7 -7 -7 -7 -7 -8 -9 -9 -9 -10 -10 -10 -11 -11 -10 -10 -10 -10 -9 -9 -9 -8 -8 -8
-5 -6 -6 -7 -7 -7 -7 -7 -7 -6 -6 -6 -7 -7 -7 -7 -7 -8 -8 -9 -9 -10 -10 -10 -11 -11 -11 -11 -11 -11 -11 -10 -10 -9 -9 -8 -8 -7
-6 -6 -6 -6 -6 -6 -6 -6 -6 -6 -6 -7 -7 -7 -7 -7 -7 -8 -8 -9 -10 -10 -10 -11 -11 -12 -12 -12 -12 -11 -11 -11 -10 -10 -9 -8 -8 -7
-6 -6 -6 -6 -6 -6 -6 -6 -6 -6 -7 -7 -7 -7 -7 -7 -7 -8 -9 -9 -10 -10 -10 -11 -11 -12 -12 -12 -12 -11 -11 -11 -11 -10 -9 -8 -8 -7
-6 -6 -6 -6 -6 -6 -6 -6 -6 -6 -7 -7 -7 -7 -7 -8 -8 -8 -9 -9 -10 -10 -10 -11 -11 -12 -12 -12 -12 -12 -11 -11 -10 -10 -9 -8 -8 -7
-6 -6 -6 -6 -6 -6 -6 -6 -6 -7 -7 -7 -7 -7 -8 -8 -9 -9 -10 -10 -11 -10 -10 -11 -11 -12 -12 -11 -11 -11 -11 -11 -10 -10 -9 -8 -7 -7
-6 -6 -6 -6 -6 -6 -6 -6 -6 -7 -7 -7 -8 -8 -8 -9 -9 -9 -10 -11 -11 -11 -11 -11 -11 -11 -11 -11 -11 -11 -11 -10 -10 -9 -9 -8 -7 -6
-6 -6 -6 -6 -6 -6 -6 -6 -7 -7 -7 -8 -8 -9 -9 -10 -10 -10 -10 -11 -11 -11 -11 -11 -11 -11 -11 -11 -10 -10 -10 -9 -9 -9 -9 -8 -7 -6
-6 -6 -6 -6 -6 -6 -6 -7 -7 -7 -8 -8 -9 -9 -9 -10 -10 -10 -11 -11 -11 -11 -12 -12 -12 -12 -12 -12 -11 -10 -10 -9 -9 -8 -8 -7 -7 -6
-6 -6 -6 -6 -6 -6 -7 -7 -7 -8 -8 -8 -9 -9 -10 -10 -10 -11 -11 -11 -11 -12 -12 -12 -12 -12 -12 -12 -12 -10 -9 -9 -9 -8 -7 -7 -6 -5
-6 -6 -6 -6 -6 -7 -7 -7 -7 -8 -8 -9 -9 -9 -10 -10 -10 -11 -11 -11 -11 -12 -12 -12 -11 -12 -12 -12 -12 -10 -9 -9 -9 -8 -7 -6 -6 -5
-6 -6 -6 -6 -7 -7 -7 -7 -8 -8 -8 -9 -9 -9 -10 -10 -10 -11 -11 -11 -12 -12 -12 -12 -11 -12 -12 -12 -12 -11 -9 -8 -7 -7 -6 -6 -5 -4
-6 -6 -6 -6 -7 -7 -7 -7 -8 -8 -9 -9 -9 -10 -10 -10 -10 -11 -11 -11 -12 -12 -12 -12 -12 -12 -12 -11 -11 -11 -10 -8 -8 -6 -5 -5 -4 -4
Wind_Speed
16 16 14 11 10 10 9 9 8 7 8 8 7 7 11 13 19 19 19 26 31 32 34 34 35 36 37 37 38 38 38 39 39 39 40 40 41 41
13 15 16 12 10 10 11 10 10 10 8 7 8 6 6 13 21 21 20 28 32 33 34 35 36 36 37 38 38 39 40 40 41 41 42 42 42 42
16 17 18 15 13 11 11 10 12 12 15 10 7 9 10 12 14 18 21 22 24 32 35 35 36 37 38 38 39 40 41 41 42 42 43 43 43 43
19 17 18 16 16 13 13 13 13 13 13 15 9 9 12 11 11 13 15 20 20 29 33 35 36 37 38 39 39 40 41 41 42 42 43 43 43 43
18 19 18 18 18 16 15 15 13 14 12 13 12 10 11 11 11 14 16 13 19 25 29 31 33 35 36 38 39 40 40 41 41 41 42 42 42 42
17 18 18 19 18 17 16 16 14 13 12 12 13 11 12 10 10 12 13 11 13 16 21 26 31 35 36 38 38 39 39 39 40 40 40 40 40 41
16 17 19 23 26 22 17 14 14 13 12 12 13 12 12 10 11 10 13 12 12 12 12 14 15 14 17 28 33 36 38 38 39 39 38 38 38 39
16 15 17 24 29 34 34 29 23 17 15 14 13 14 14 12 10 11 12 13 16 7 10 14 11 15 13 11 28 35 37 37 38 38 38 37 37 37
16 15 15 18 25 17 25 32 29 32 28 18 16 16 15 12 11 14 14 16 18 10 11 18 12 15 14 18 32 34 36 36 37 37 37 37 37 36
16 16 16 15 17 18 16 16 17 17 20 15 13 14 13 12 13 15 16 16 16 12 10 17 15 15 16 12 27 33 35 35 35 35 35 36 36 36
15 16 17 16 25 29 19 17 18 17 22 27 26 24 27 28 22 13 12 14 17 13 6 11 16 16 16 14 18 30 31 31 32 32 33 34 35 34
11 15 24 24 26 28 19 16 17 15 12 13 16 19 17 18 24 14 10 13 16 14 6 7 12 12 14 11 10 11 14 23 30 31 31 31 32 22
11 11 14 26 29 29 24 15 19 15 11 11 11 10 10 9 10 10 9 10 14 15 9 9 14 15 16 16 14 12 13 14 16 19 25 29 30 24
11 9 12 22 25 26 20 19 23 20 9 8 8 9 9 9 8 9 10 11 13 16 14 13 16 17 17 19 17 11 10 11 13 15 14 21 23 27
10 16 17 21 21 17 21 22 17 9 6 7 9 9 7 7 7 7 8 10 11 13 14 15 16 16 16 18 19 17 16 14 13 14 13 13 13 13
10 15 20 21 17 15 13 11 7 6 7 8 7 7 6 6 7 7 8 8 11 12 11 13 15 17 16 18 17 18 15 12 10 11 12 12 12 12
7 6 7 7 8 7 6 6 6 6 7 6 6 6 7 7 8 7 7 9 11 13 12 9 10 13 16 16 16 17 15 15 14 13 12 12 11 12
11 6 7 8 8 8 7 7 7 7 6 6 6 6 7 8 9 8 8 9 12 12 12 11 11 12 11 11 16 17 15 14 12 12 12 12 11 11
9 6 6 6 7 7 6 6 6 6 5 5 6 6 7 8 9 10 10 10 11 12 11 10 10 11 14 14 8 12 12 12 11 10 10 11 11 10
5 6 6 6 6 6 6 6 5 5 5 5 6 6 7 8 10 10 10 11 12 13 12 10 9 10 12 14 13 11 15 13 11 11 10 9 9 11
5 6 5 5 5 6 5 5 5 5 5 5 6 7 7 8 10 10 11 16 15 12 13 12 11 17 12 10 11 11 9 14 16 12 9 8 7 7
5 6 6 6 6 5 5 5 5 5 5 5 6 7 7 8 10 11 11 11 12 12 14 12 11 11 9 11 13 14 13 11 13 18 19 15 6 4
5 6 6 6 5 5 5 5 5 5 5 5 6 6 7 8 9 9 10 11 12 13 13 13 11 9 10 11 12 12 13 12 9 8 9 13 18 18
Wind_Direction
223 221 223 221 216 213 209 203 207 230 235 220 231 234 236 246 261 267 262 268 273 275 276 278 279 280 280 280 280 279 279 278 277 276 275 273 272 271
220 220 222 221 219 216 217 216 215 225 239 218 224 235 254 266 269 269 268 273 275 277 278 279 280 279 279 279 279 279 278 277 276 274 273 272 271 269
221 220 222 216 219 219 218 219 222 225 244 245 235 250 254 259 267 267 269 268 269 273 275 277 278 279 279 279 278 278 278 277 276 274 272 271 270 268
222 220 221 218 219 218 219 221 225 226 236 250 249 250 253 256 258 262 269 269 266 271 274 276 278 279 279 279 279 279 278 277 276 273 272 270 269 268
221 220 220 216 219 219 220 222 227 231 233 245 253 251 257 259 261 266 265 265 268 272 276 278 280 280 280 280 280 280 279 278 276 273 271 269 267 266
221 221 219 217 218 218 221 223 226 230 233 241 251 255 258 256 255 264 269 263 266 271 275 278 279 281 281 282 282 281 280 279 277 274 271 268 267 265
223 222 221 221 221 221 223 223 223 228 232 240 248 254 257 256 255 258 268 273 268 265 272 272 274 273 274 277 278 279 278 277 275 273 271 269 266 264
227 225 224 230 231 231 231 228 223 223 228 234 242 248 253 253 257 261 270 278 281 251 259 273 270 274 273 268 275 277 276 275 273 271 269 267 265 263
228 226 228 228 230 231 238 240 237 234 231 230 240 247 254 255 259 268 268 270 275 274 280 282 276 277 276 276 280 280 279 277 275 272 269 266 263 261
225 224 225 225 226 225 227 233 240 245 246 244 244 251 256 260 259 264 271 275 275 269 261 279 284 283 282 276 282 281 280 278 276 273 270 267 263 260
224 222 222 224 229 230 227 227 234 240 247 249 251 255 258 264 267 271 272 280 284 281 248 269 283 287 285 282 279 280 279 280 280 278 273 268 263 257
229 224 226 225 228 231 228 224 230 235 233 244 253 261 265 269 273 268 266 274 281 286 260 259 281 290 291 275 264 271 277 281 283 282 278 273 265 256
235 226 222 229 231 231 230 226 233 235 231 238 246 250 253 253 253 249 244 252 269 275 275 277 283 283 279 284 283 275 271 272 276 277 277 273 264 253
234 226 220 227 232 234 234 234 238 244 236 234 246 254 256 256 252 248 246 246 252 266 274 273 278 280 281 282 285 280 267 268 271 273 272 267 262 254
232 227 224 228 229 233 237 238 241 238 228 240 251 256 252 253 256 261 261 259 263 266 271 269 270 274 272 275 280 282 283 279 268 267 267 259 251 247
249 235 229 227 223 221 228 240 234 226 227 239 250 256 258 263 267 267 274 279 284 284 269 264 267 270 274 274 274 276 275 272 271 274 271 264 251 242
237 220 213 214 213 206 205 214 218 228 243 237 247 260 268 272 275 272 273 282 286 290 292 283 270 269 269 274 275 271 271 269 266 267 268 264 253 241
237 221 211 208 208 206 208 213 216 221 228 237 247 257 268 274 280 281 279 281 285 287 290 293 294 293 285 269 254 264 267 269 269 265 261 260 256 243
233 210 202 201 204 204 205 207 213 219 221 233 246 256 265 272 278 283 284 284 286 288 289 290 291 294 297 298 273 257 267 275 276 268 258 253 254 248
215 200 196 198 199 198 201 205 212 219 224 234 245 255 261 271 278 280 283 285 290 293 293 289 284 283 284 289 290 284 279 272 271 272 266 259 253 253
202 191 190 194 194 192 195 200 208 220 230 238 249 256 261 269 276 279 284 290 295 295 295 294 286 291 288 283 281 280 277 273 267 266 269 265 252 242
192 188 189 188 184 186 191 198 211 226 236 244 253 259 265 271 277 282 287 291 292 291 292 292 290 290 284 280 280 285 289 288 277 268 261 255 259 236
186 183 181 180 181 183 190 202 216 233 240 248 258 265 271 277 281 284 287 290 292 294 296 297 297 291 285 280 281 282 283 286 287 278 266 253 251 257
Height
1435 1436 1437 1437 1439 1439 1441 1442 1443 1439 1436 1438 1442 1443 1443 1442 1440 1438 1436 1434 1433 1431 1429 1426 1424 1421 1419 1417 1414 1412 1410 1409 1407 1406 1405 1404 1403 1402
1425 1426 1426 1427 1429 1431 1431 1432 1432 1431 1426 1426 1430 1433 1433 1431 1430 1428 1426 1424 1423 1421 1418 1416 1413 1411 1408 1406 1403 1401 1398 1396 1395 1393 1392 1391 1390 1389
1413 1414 1414 1417 1418 1420 1422 1423 1423 1422 1418 1416 1420 1422 1422 1421 1419 1418 1416 1413 1411 1409 1407 1404 1402 1400 1397 1394 1391 1389 1386 1384 1382 1380 1378 1377 1376 1376
1401 1402 1403 1406 1407 1410 1411 1412 1412 1413 1411 1408 1410 1412 1411 1411 1408 1407 1405 1403 1400 1398 1396 1394 1391 1388 1385 1382 1379 1376 1373 1370 1368 1366 1364 1363 1362 1361
1390 1391 1392 1395 1395 1398 1400 1401 1403 1404 1403 1401 1399 1401 1401 1400 1398 1396 1394 1392 1390 1388 1385 1383 1380 1376 1373 1370 1366 1363 1360 1357 1354 1352 1350 1349 1348 1347
1379 1380 1381 1383 1384 1388 1390 1391 1393 1394 1394 1393 1391 1391 1390 1390 1389 1386 1383 1382 1379 1377 1374 1371 1368 1364 1360 1357 1353 1349 1346 1342 1340 1337 1335 1334 1333 1333
1368 1369 1370 1372 1374 1377 1379 1381 1383 1384 1384 1384 1382 1382 1380 1380 1379 1378 1375 1371 1367 1366 1361 1357 1354 1349 1344 1341 1338 1334 1331 1328 1325 1323 1321 1320 1319 1318
1356 1357 1359 1362 1364 1368 1370 1371 1373 1373 1374 1374 1373 1372 1370 1371 1370 1369 1366 1362 1355 1354 1351 1343 1342 1335 1330 1327 1323 1320 1316 1313 1311 1309 1307 1306 1305 1304
1345 1346 1348 1350 1354 1357 1360 1363 1364 1365 1365 1366 1364 1363 1362 1362 1362 1359 1356 1352 1346 1343 1341 1330 1328 1322 1318 1313 1310 1307 1303 1299 1297 1295 1293 1291 1291 1290
1335 1336 1338 1340 1343 1346 1349 1351 1353 1355 1357 1357 1356 1355 1355 1354 1353 1350 1347 1341 1335 1333 1331 1322 1315 1310 1305 1300 1297 1293 1290 1286 1283 1281 1279 1278 1277 1277
1325 1326 1328 1330 1333 1338 1341 1341 1343 1344 1347 1348 1348 1347 1346 1346 1345 1343 1338 1333 1325 1321 1321 1315 1306 1299 1292 1286 1283 1280 1277 1274 1271 1268 1265 1264 1264 1264
1318 1318 1319 1321 1324 1329 1332 1333 1334 1335 1338 1338 1338 1338 1337 1336 1335 1334 1330 1325 1318 1310 1308 1305 1298 1293 1280 1272 1270 1268 1265 1262 1259 1256 1253 1251 1251 1252
1310 1309 1311 1314 1317 1320 1323 1325 1326 1329 1330 1330 1329 1328 1327 1326 1324 1322 1320 1317 1310 1302 1299 1297 1289 1284 1278 1265 1259 1257 1254 1250 1246 1243 1240 1239 1239 1241
1302 1303 1304 1308 1311 1314 1316 1318 1320 1322 1323 1322 1321 1319 1318 1316 1314 1312 1309 1306 1301 1295 1290 1287 1281 1275 1269 1259 1250 1244 1242 1240 1236 1232 1229 1228 1228 1230
1295 1296 1299 1301 1304 1307 1310 1312 1314 1315 1315 1314 1313 1311 1310 1308 1305 1302 1299 1295 1290 1285 1280 1276 1272 1266 1261 1253 1244 1237 1233 1228 1226 1223 1221 1219 1219 1220
1289 1290 1293 1296 1298 1301 1303 1305 1307 1307 1307 1307 1305 1304 1302 1300 1297 1294 1290 1285 1279 1272 1270 1266 1262 1257 1250 1244 1238 1230 1225 1221 1216 1215 1213 1211 1210 1211
1283 1284 1287 1290 1292 1294 1296 1298 1300 1301 1301 1300 1299 1297 1294 1292 1288 1286 1282 1277 1271 1264 1258 1255 1252 1247 1241 1236 1229 1222 1217 1212 1209 1207 1206 1203 1203 1203
1279 1279 1281 1284 1286 1288 1290 1292 1293 1294 1294 1293 1292 1290 1288 1285 1281 1278 1274 1269 1264 1257 1252 1247 1242 1236 1230 1224 1221 1215 1210 1206 1202 1201 1199 1198 1195 1196
1274 1275 1277 1279 1281 1283 1285 1286 1287 1288 1288 1287 1286 1284 1281 1278 1275 1271 1267 1262 1256 1251 1245 1241 1236 1231 1225 1216 1211 1210 1205 1200 1197 1195 1193 1192 1191 1191
1269 1270 1272 1275 1277 1278 1280 1281 1282 1282 1282 1281 1279 1277 1275 1272 1268 1264 1260 1255 1250 1244 1238 1233 1230 1226 1220 1213 1205 1199 1199 1196 1193 1190 1188 1187 1187 1187
1264 1266 1268 1271 1272 1274 1275 1276 1277 1277 1276 1275 1273 1271 1269 1266 1262 1258 1254 1249 1244 1238 1231 1226 1222 1219 1213 1208 1200 1192 1190 1190 1188 1186 1185 1184 1184 1184
1260 1262 1265 1267 1268 1270 1271 1271 1271 1271 1271 1270 1268 1266 1263 1260 1256 1252 1247 1242 1237 1231 1225 1219 1214 1210 1206 1201 1195 1188 1184 1182 1181 1180 1181 1181 1181 1182
1257 1259 1261 1263 1264 1266 1266 1267 1266 1266 1265 1264 1262 1260 1258 1254 1251 1246 1241 1236 1230 1224 1218 1212 1207 1203 1199 1194 1189 1184 1180 1178 1176 1176 1176 1176 1177 1178